Temp
-16 -16 -16 -15 -15 -16 -17 -17 -17 -17 -17 -17 -18 -18 -18 -18 -17 -17 -17 -17 -17 -17 -17 -17 -17 -18 -19 -19 -19 -19 -19 -19 -20 -19 -19 -18 -18 -18 -18 -18 -17 -17 -17
-16 -16 -16 -16 -16 -17 -17 -17 -18 -18 -18 -18 -18 -18 -18 -18 -18 -18 -18 -17 -17 -17 -17 -18 -18 -18 -19 -20 -19 -19 -19 -19 -19 -20 -19 -19 -18 -18 -17 -18 -18 -17 -17
-16 -16 -16 -17 -17 -18 -18 -18 -18 -18 -18 -18 -18 -18 -18 -18 -18 -18 -17 -17 -18 -18 -18 -18 -18 -18 -19 -20 -19 -20 -20 -18 -19 -20 -20 -19 -18 -18 -18 -18 -17 -17 -17
-16 -16 -17 -18 -18 -18 -18 -18 -18 -18 -18 -18 -18 -18 -18 -18 -18 -18 -18 -18 -18 -18 -19 -19 -19 -19 -20 -20 -20 -19 -19 -19 -19 -20 -19 -19 -18 -18 -18 -18 -17 -17 -17
-18 -18 -18 -18 -18 -18 -19 -19 -19 -19 -19 -19 -19 -18 -18 -18 -19 -19 -19 -19 -19 -19 -19 -20 -20 -20 -20 -20 -20 -20 -19 -19 -19 -19 -19 -19 -19 -18 -18 -18 -18 -17 -17
-19 -18 -18 -19 -19 -19 -19 -18 -18 -19 -19 -19 -20 -19 -19 -19 -19 -19 -20 -20 -20 -20 -20 -21 -20 -20 -20 -20 -20 -20 -20 -20 -19 -19 -19 -19 -18 -18 -18 -18 -18 -18 -17
-19 -19 -19 -20 -19 -19 -19 -18 -18 -19 -19 -20 -20 -20 -19 -20 -20 -20 -20 -20 -20 -21 -21 -21 -20 -20 -19 -20 -20 -20 -20 -20 -19 -19 -19 -19 -18 -18 -18 -18 -18 -18 -18
-20 -20 -20 -20 -20 -19 -19 -19 -19 -19 -20 -20 -20 -20 -20 -20 -21 -21 -21 -21 -21 -21 -21 -21 -20 -20 -19 -20 -20 -20 -20 -20 -20 -19 -18 -18 -18 -18 -18 -18 -19 -19 -18
-21 -21 -21 -20 -20 -20 -20 -20 -20 -20 -20 -20 -20 -20 -21 -21 -21 -22 -22 -22 -21 -21 -21 -20 -20 -19 -19 -20 -20 -20 -20 -19 -19 -19 -19 -19 -18 -18 -19 -19 -18 -17 -17
-21 -21 -21 -21 -21 -21 -21 -21 -20 -20 -20 -20 -20 -20 -21 -21 -21 -21 -22 -22 -21 -21 -20 -21 -20 -19 -19 -19 -19 -19 -19 -18 -19 -19 -19 -18 -19 -19 -19 -18 -17 -17 -17
-21 -21 -21 -21 -21 -21 -21 -21 -20 -20 -20 -20 -21 -21 -21 -21 -21 -21 -21 -21 -21 -20 -20 -20 -20 -19 -19 -19 -19 -19 -18 -19 -18 -19 -18 -19 -19 -18 -18 -17 -17 -17 -17
-22 -21 -21 -21 -21 -21 -21 -20 -20 -20 -20 -20 -20 -20 -20 -20 -20 -21 -20 -20 -20 -20 -20 -19 -19 -19 -19 -19 -18 -18 -18 -18 -18 -18 -19 -19 -19 -18 -18 -17 -17 -18 -18
-21 -21 -21 -21 -20 -20 -20 -20 -20 -20 -20 -20 -19 -19 -19 -19 -20 -20 -20 -20 -19 -19 -19 -19 -19 -18 -18 -19 -18 -18 -18 -18 -18 -19 -19 -18 -18 -18 -18 -18 -18 -18 -18
-21 -21 -20 -20 -20 -20 -20 -20 -20 -20 -19 -18 -18 -18 -18 -19 -19 -19 -19 -19 -18 -18 -18 -18 -18 -18 -18 -18 -18 -18 -18 -18 -18 -19 -18 -18 -18 -18 -18 -18 -17 -18 -17
-20 -20 -20 -20 -20 -20 -20 -20 -19 -19 -18 -17 -17 -18 -18 -18 -18 -18 -19 -19 -18 -18 -18 -18 -18 -18 -18 -18 -18 -18 -18 -18 -18 -18 -18 -18 -18 -18 -17 -17 -17 -17 -17
-20 -20 -20 -20 -20 -20 -20 -20 -19 -19 -18 -18 -18 -18 -18 -18 -19 -18 -18 -18 -18 -18 -18 -18 -18 -18 -18 -18 -18 -18 -18 -18 -18 -18 -18 -18 -17 -17 -17 -17 -17 -17 -17
-20 -20 -20 -20 -20 -20 -19 -19 -19 -18 -18 -18 -18 -18 -18 -18 -18 -18 -18 -19 -18 -18 -19 -18 -18 -18 -18 -18 -18 -18 -18 -18 -18 -18 -17 -17 -17 -17 -17 -17 -17 -17 -17
-19 -20 -20 -20 -20 -19 -19 -19 -19 -18 -18 -18 -18 -18 -18 -18 -18 -18 -18 -18 -18 -18 -18 -18 -18 -18 -18 -18 -18 -18 -18 -18 -18 -18 -18 -17 -17 -17 -17 -17 -17 -17 -17
-20 -20 -20 -19 -19 -19 -19 -19 -18 -18 -18 -18 -18 -18 -18 -18 -18 -18 -18 -18 -18 -18 -18 -18 -18 -18 -18 -18 -18 -18 -18 -18 -18 -17 -17 -17 -17 -17 -17 -17 -17 -17 -17
-20 -20 -19 -19 -19 -19 -18 -18 -18 -18 -18 -18 -18 -18 -18 -18 -18 -18 -18 -18 -18 -18 -18 -18 -18 -18 -18 -18 -18 -17 -17 -17 -17 -17 -17 -17 -17 -17 -17 -17 -17 -17 -16
-20 -19 -19 -19 -18 -18 -18 -18 -18 -18 -18 -18 -18 -18 -18 -18 -18 -18 -18 -18 -17 -17 -17 -17 -17 -17 -17 -17 -17 -17 -17 -17 -17 -17 -17 -17 -17 -17 -16 -16 -16 -16 -16
-19 -19 -19 -18 -18 -18 -18 -18 -18 -18 -18 -18 -18 -18 -18 -18 -18 -17 -17 -17 -17 -17 -17 -17 -17 -17 -17 -17 -17 -17 -17 -17 -17 -17 -17 -17 -17 -17 -17 -17 -17 -17 -17
-19 -19 -18 -18 -18 -18 -18 -18 -18 -18 -18 -17 -18 -18 -18 -18 -17 -17 -17 -17 -17 -17 -17 -17 -17 -17 -17 -17 -17 -17 -17 -17 -17 -17 -17 -17 -17 -17 -17 -17 -17 -17 -17
-18 -18 -18 -18 -18 -18 -18 -18 -17 -17 -18 -17 -17 -17 -17 -17 -17 -17 -17 -17 -17 -17 -17 -17 -17 -17 -17 -17 -17 -17 -17 -17 -16 -16 -16 -16 -17 -17 -17 -17 -17 -17 -17
-17 -17 -17 -18 -18 -17 -17 -17 -17 -17 -17 -17 -17 -17 -17 -17 -17 -17 -17 -17 -17 -17 -17 -17 -17 -17 -17 -17 -16 -16 -16 -16 -16 -16 -16 -16 -16 -16 -16 -16 -16 -17 -17
-17 -17 -17 -17 -17 -17 -17 -17 -17 -17 -17 -17 -17 -17 -17 -17 -17 -17 -17 -17 -17 -17 -17 -16 -16 -16 -16 -16 -16 -16 -16 -16 -16 -16 -16 -16 -16 -16 -16 -16 -16 -17 -17
Height
5715 5707 5699 5691 5683 5675 5668 5663 5657 5652 5647 5641 5637 5631 5626 5622 5619 5615 5611 5607 5604 5601 5599 5596 5593 5591 5589 5588 5587 5586 5585 5585 5585 5587 5589 5593 5592 5596 5597 5599 5601 5602 5605
5703 5695 5687 5679 5672 5665 5659 5654 5649 5644 5639 5634 5629 5624 5620 5615 5611 5608 5604 5600 5598 5595 5593 5589 5587 5585 5583 5583 5582 5581 5582 5583 5583 5580 5586 5589 5592 5593 5594 5599 5600 5600 5602
5689 5682 5675 5667 5662 5656 5651 5645 5641 5635 5630 5626 5621 5617 5612 5608 5604 5600 5597 5594 5591 5589 5586 5583 5581 5579 5578 5578 5579 5579 5581 5581 5582 5583 5587 5590 5594 5594 5596 5597 5599 5598 5601
5677 5670 5663 5658 5652 5646 5641 5636 5631 5625 5620 5616 5612 5607 5603 5599 5596 5592 5589 5587 5585 5582 5580 5577 5575 5574 5574 5576 5577 5578 5580 5581 5583 5586 5588 5591 5592 5596 5597 5597 5598 5599 5601
5664 5659 5653 5648 5642 5637 5632 5627 5622 5616 5612 5607 5603 5599 5595 5592 5589 5587 5584 5581 5579 5577 5574 5571 5570 5571 5572 5574 5576 5577 5579 5582 5585 5588 5590 5595 5597 5598 5597 5597 5597 5598 5599
5653 5648 5643 5639 5634 5630 5626 5621 5616 5610 5605 5601 5597 5593 5590 5587 5585 5582 5579 5575 5573 5570 5568 5566 5567 5569 5572 5575 5576 5578 5580 5585 5589 5591 5594 5597 5599 5599 5599 5599 5599 5600 5598
5643 5639 5635 5631 5628 5623 5620 5615 5610 5605 5599 5595 5591 5587 5584 5582 5580 5577 5573 5570 5566 5563 5563 5564 5566 5567 5572 5576 5578 5581 5584 5587 5590 5595 5598 5599 5601 5601 5600 5601 5600 5599 5599
5634 5631 5627 5624 5621 5617 5613 5609 5605 5600 5594 5590 5587 5582 5579 5578 5574 5571 5568 5565 5562 5560 5560 5562 5565 5568 5574 5578 5582 5586 5589 5591 5594 5598 5601 5602 5603 5603 5602 5602 5601 5602 5605
5625 5622 5620 5617 5614 5610 5606 5603 5600 5595 5591 5587 5584 5580 5576 5572 5568 5566 5564 5562 5559 5558 5559 5562 5565 5571 5576 5582 5586 5590 5593 5595 5599 5602 5604 5605 5606 5606 5605 5605 5606 5608 5609
5617 5615 5613 5611 5608 5605 5602 5599 5596 5593 5590 5585 5581 5576 5572 5569 5567 5565 5563 5561 5559 5560 5561 5564 5568 5574 5580 5586 5590 5593 5597 5600 5602 5605 5607 5608 5609 5610 5610 5610 5611 5612 5613
5612 5610 5609 5607 5604 5601 5599 5596 5595 5593 5589 5585 5581 5576 5573 5570 5568 5566 5564 5564 5564 5565 5567 5571 5575 5581 5587 5591 5595 5599 5602 5605 5608 5610 5610 5611 5613 5614 5615 5614 5614 5614 5615
5609 5608 5607 5605 5603 5600 5598 5597 5595 5593 5589 5587 5582 5579 5576 5575 5573 5572 5571 5572 5573 5574 5576 5580 5584 5589 5593 5597 5601 5605 5608 5610 5612 5614 5615 5616 5617 5618 5618 5617 5617 5617 5618
5609 5608 5606 5604 5603 5602 5600 5599 5597 5594 5591 5588 5586 5584 5583 5582 5581 5581 5582 5583 5583 5584 5586 5589 5593 5596 5600 5604 5607 5611 5615 5616 5617 5618 5620 5621 5622 5622 5621 5621 5622 5623 5624
5610 5609 5608 5607 5606 5605 5604 5602 5599 5596 5593 5592 5592 5591 5591 5590 5589 5590 5591 5592 5594 5595 5597 5599 5602 5606 5609 5613 5616 5618 5620 5621 5622 5623 5624 5625 5626 5627 5628 5628 5628 5628 5628
5614 5613 5612 5611 5610 5610 5609 5606 5603 5600 5599 5599 5599 5599 5600 5600 5600 5600 5600 5602 5603 5605 5607 5609 5612 5615 5618 5620 5622 5623 5625 5627 5628 5629 5630 5632 5633 5633 5633 5633 5633 5633 5633
5619 5618 5618 5618 5617 5616 5614 5612 5610 5609 5608 5608 5609 5609 5609 5609 5610 5610 5611 5612 5613 5614 5616 5619 5621 5623 5625 5627 5629 5630 5632 5633 5635 5636 5638 5638 5639 5639 5640 5640 5639 5639 5638
5627 5627 5626 5626 5624 5623 5622 5621 5620 5620 5619 5619 5619 5618 5618 5619 5620 5621 5622 5623 5625 5625 5627 5628 5630 5632 5634 5636 5638 5640 5641 5643 5644 5645 5645 5645 5646 5645 5645 5645 5645 5644 5643
5637 5636 5635 5634 5633 5632 5632 5631 5631 5631 5631 5630 5630 5630 5630 5630 5632 5633 5634 5635 5636 5637 5638 5640 5642 5644 5646 5647 5649 5650 5651 5651 5652 5652 5652 5653 5653 5652 5651 5650 5650 5649 5649
5646 5645 5644 5644 5643 5643 5643 5643 5643 5644 5645 5645 5644 5645 5645 5646 5647 5648 5648 5650 5650 5651 5652 5654 5655 5656 5657 5658 5659 5659 5660 5660 5659 5659 5659 5659 5658 5657 5656 5656 5655 5654 5653
5656 5654 5654 5655 5654 5655 5656 5657 5657 5659 5660 5660 5660 5660 5660 5662 5662 5662 5663 5664 5664 5665 5665 5666 5666 5667 5668 5668 5668 5668 5668 5668 5667 5666 5666 5665 5664 5662 5661 5659 5658 5656 5654
5667 5666 5666 5667 5668 5669 5670 5671 5672 5673 5674 5675 5675 5674 5675 5676 5676 5676 5677 5678 5678 5679 5679 5679 5679 5678 5678 5677 5676 5675 5674 5673 5672 5671 5670 5669 5667 5665 5663 5661 5660 5658 5656
5680 5680 5680 5681 5682 5682 5683 5684 5685 5687 5688 5688 5687 5688 5689 5690 5690 5690 5690 5690 5689 5688 5687 5687 5686 5685 5684 5683 5683 5682 5681 5680 5679 5677 5676 5674 5672 5670 5668 5666 5664 5662 5659
5692 5692 5693 5694 5694 5695 5696 5697 5698 5699 5700 5700 5700 5701 5700 5700 5700 5700 5700 5699 5698 5697 5696 5695 5694 5693 5692 5691 5690 5688 5686 5684 5682 5680 5678 5676 5674 5672 5670 5668 5666 5663 5660
5704 5704 5704 5706 5707 5708 5709 5710 5711 5711 5712 5712 5712 5712 5712 5711 5711 5710 5709 5708 5706 5705 5703 5702 5701 5700 5699 5697 5696 5694 5692 5690 5688 5686 5684 5681 5679 5677 5674 5672 5669 5665 5662
5715 5715 5716 5717 5718 5719 5720 5721 5722 5722 5722 5722 5722 5722 5722 5721 5721 5720 5718 5716 5715 5713 5712 5710 5709 5707 5706 5705 5703 5701 5699 5697 5695 5693 5690 5687 5685 5681 5677 5674 5671 5668 5665
5726 5727 5727 5728 5729 5730 5731 5731 5731 5731 5732 5732 5732 5732 5731 5731 5730 5729 5728 5726 5724 5722 5721 5719 5718 5716 5715 5713 5711 5709 5706 5703 5701 5698 5695 5693 5689 5686 5683 5679 5675 5671 5667
Wind_Speed
56 60 64 68 70 59 48 44 44 43 43 41 39 36 34 33 31 28 25 26 27 26 26 27 25 20 20 21 19 17 11 8 8 11 13 15 11 6 6 6 9 14 15
58 64 68 65 54 45 44 44 43 41 40 36 34 30 30 30 28 27 28 27 26 26 28 26 24 22 20 19 16 13 7 1 1 17 11 9 13 10 9 4 3 8 15
63 69 63 51 43 43 44 43 43 42 39 37 36 36 36 33 30 29 28 26 26 27 27 26 23 21 14 9 9 6 3 5 8 14 13 10 11 12 8 4 5 9 9
66 58 47 42 42 42 43 44 44 43 42 41 39 37 34 33 32 29 26 25 26 27 25 23 21 13 5 5 3 5 8 9 8 8 12 4 15 12 2 6 8 8 7
49 43 42 41 41 41 36 34 35 36 35 33 32 31 29 28 27 24 26 26 26 24 25 21 13 5 9 4 5 7 7 8 8 10 13 7 12 6 3 6 9 6 8
42 41 39 39 32 28 31 31 33 35 32 30 26 26 25 25 25 26 25 26 26 24 17 10 5 10 12 8 9 8 9 10 12 17 12 12 8 4 6 4 5 4 4
38 37 34 29 29 30 32 32 35 37 31 26 27 27 28 26 24 24 24 24 22 16 7 3 9 15 14 11 11 10 9 10 16 13 9 9 6 8 3 2 5 9 16
32 31 30 28 29 29 30 31 34 36 27 23 24 25 26 25 23 22 22 13 13 8 4 7 13 19 17 16 15 11 9 5 11 8 10 5 4 4 3 3 17 18 14
29 25 25 27 27 27 28 29 30 27 20 19 21 23 23 23 23 15 8 9 6 4 6 11 14 22 20 18 14 12 9 8 13 12 8 7 3 4 10 16 14 12 12
22 22 21 24 25 24 24 23 20 16 18 21 22 20 15 11 9 8 9 10 11 10 11 13 19 27 22 18 14 13 12 14 14 14 9 7 5 11 14 14 11 9 8
15 14 18 19 20 16 16 13 13 15 16 14 16 15 12 12 14 17 18 18 19 19 20 22 24 25 22 17 17 17 18 21 17 15 13 10 14 11 10 8 7 5 7
7 12 15 14 14 11 9 11 13 10 12 15 14 16 18 22 23 24 28 31 31 29 28 28 29 28 23 20 18 17 19 16 14 10 12 12 13 8 7 10 14 15 15
9 11 10 10 10 10 12 12 12 13 14 15 19 24 26 29 31 34 34 34 33 32 33 32 30 27 24 22 23 19 17 16 13 13 16 15 12 14 17 19 19 18 16
12 12 12 11 12 12 16 15 15 15 16 21 27 28 31 33 34 35 35 35 35 34 32 31 28 28 27 24 21 20 17 19 18 15 16 17 20 20 19 19 17 15 14
15 14 13 14 16 18 18 19 22 24 26 29 30 31 33 34 35 36 35 34 33 31 29 31 28 27 24 22 22 20 18 17 18 22 25 24 22 18 18 18 16 18 17
15 17 21 21 21 22 24 27 29 31 32 31 30 31 31 32 32 33 32 31 30 27 26 26 24 25 25 23 23 25 27 29 30 26 24 22 20 20 19 18 17 18 19
24 23 24 24 25 27 31 33 36 37 36 35 35 34 36 38 39 39 39 40 41 42 41 40 38 37 37 39 36 33 33 31 28 26 23 21 21 18 19 20 20 20 19
28 28 27 28 30 33 34 36 38 40 43 46 47 48 48 46 44 42 41 40 41 42 43 45 43 40 38 35 33 31 29 27 27 25 24 22 21 20 19 18 17 16 15
28 29 30 33 35 36 41 46 49 51 49 49 51 52 53 53 51 49 48 46 44 43 42 41 39 36 36 36 36 34 30 26 24 23 21 20 19 18 17 16 14 14 13
30 32 33 37 40 44 47 47 45 47 48 49 50 51 52 52 51 50 48 45 44 43 42 41 39 36 33 31 28 27 26 24 23 22 19 17 15 14 14 13 12 12 12
37 39 43 44 43 44 46 46 46 46 47 48 49 49 47 44 44 43 42 42 41 39 36 35 33 30 28 26 25 23 21 19 18 16 14 13 13 13 13 13 13 13 13
39 40 41 43 42 42 42 45 46 46 46 47 46 45 43 42 41 38 37 35 32 30 27 26 24 23 22 22 21 20 19 18 17 16 15 15 14 14 14 13 13 13 12
35 35 39 39 40 41 42 43 43 43 43 42 41 39 38 36 34 32 30 29 29 29 28 28 27 26 26 25 25 24 24 23 22 21 19 18 17 16 15 14 13 13 13
34 35 38 40 40 39 40 42 41 38 37 36 35 35 33 31 32 33 34 34 33 32 31 29 29 28 28 29 30 30 29 27 27 27 27 26 24 22 21 20 20 20 20
34 36 36 37 38 40 38 35 34 32 31 31 32 31 33 36 36 35 35 35 35 35 35 34 32 30 29 30 34 35 35 35 34 33 31 30 29 29 28 27 25 23 22
32 33 36 36 35 33 31 29 28 28 29 29 32 36 36 36 36 37 37 38 39 40 41 41 41 39 38 37 36 36 36 36 35 34 32 31 30 28 27 25 24 24 24
Wind_Direction
306 313 316 315 315 313 313 313 312 312 313 311 311 311 309 308 305 301 297 299 299 302 307 305 299 291 287 291 301 307 291 268 240 216 231 223 201 155 197 222 241 243 239
311 315 315 313 311 311 310 309 307 309 310 310 309 310 311 305 300 297 298 297 294 300 307 305 300 298 291 287 297 301 265 245 197 205 203 168 159 214 160 228 228 247 225
313 312 311 308 306 307 309 308 308 307 304 300 300 301 301 300 299 296 296 295 298 305 307 305 304 298 291 273 294 254 200 160 213 199 214 137 157 177 165 227 203 230 223
309 310 305 304 308 310 310 308 307 303 300 299 301 302 302 301 298 297 294 298 303 306 305 305 303 297 221 224 220 168 163 177 197 192 206 101 163 187 273 241 231 233 254
308 305 306 308 310 310 313 315 314 310 305 305 305 304 307 308 303 301 300 300 305 306 304 301 293 209 179 180 175 145 180 181 177 176 177 112 173 172 36 145 214 279 280
304 306 307 309 308 312 313 315 319 323 318 313 309 306 307 308 307 305 304 305 307 304 302 290 232 173 165 144 142 156 185 177 178 175 181 131 139 68 151 148 270 92 223
304 306 306 304 306 309 309 309 316 325 320 311 309 305 305 306 307 305 306 309 307 301 275 230 175 165 158 144 144 159 172 165 182 196 171 155 132 103 122 284 255 154 119
302 301 304 304 305 305 311 310 313 320 317 311 306 304 305 309 309 310 310 305 310 317 222 165 166 156 151 136 143 144 139 153 171 141 154 146 95 95 290 0 88 82 92
298 304 308 306 305 309 311 312 313 317 322 319 314 315 318 312 311 324 338 331 344 42 134 154 154 151 147 136 127 127 144 127 126 126 126 109 91 23 102 75 69 74 76
306 309 311 311 314 315 310 307 314 327 329 327 326 325 341 355 12 32 27 53 74 92 116 131 137 146 141 133 120 120 116 121 135 125 112 103 86 87 74 68 65 67 70
312 319 322 323 322 327 319 321 334 337 341 357 8 5 16 38 54 57 71 81 89 94 101 112 121 138 134 119 113 117 125 119 115 98 83 106 106 91 86 73 62 71 94
344 338 331 334 346 346 348 356 358 18 16 26 30 47 57 66 73 79 84 87 92 95 101 107 113 119 116 112 114 126 123 118 121 111 83 122 118 106 58 79 85 87 92
14 353 358 11 18 19 13 32 53 34 26 39 64 73 76 81 84 89 91 92 93 96 100 106 108 108 109 116 127 135 102 101 101 101 109 108 91 88 88 84 89 90 86
34 41 41 37 31 39 68 53 39 47 61 76 86 88 88 92 94 94 91 91 94 95 97 100 102 107 106 107 112 117 111 101 109 98 89 89 95 91 93 88 82 75 75
46 41 37 53 75 74 65 55 60 74 83 92 96 95 93 93 92 92 91 91 94 98 104 109 110 112 109 110 114 115 107 104 102 98 99 98 91 90 87 82 81 84 84
53 68 80 83 80 75 67 72 80 85 89 91 92 91 89 89 88 89 89 91 93 98 104 109 109 105 105 103 102 101 99 98 100 95 96 88 79 84 87 86 83 89 87
84 83 85 83 77 76 81 85 88 89 88 89 89 90 91 91 91 91 89 88 89 91 94 96 98 102 104 101 98 97 96 95 93 91 81 84 95 91 92 93 90 82 77
85 87 84 80 83 86 90 91 91 92 92 91 90 89 89 90 91 89 88 89 91 92 94 96 99 98 94 97 94 93 92 89 88 88 90 87 86 87 85 77 70 66 61
88 89 85 87 88 92 96 96 96 96 95 93 93 92 90 90 91 92 90 90 91 92 93 93 96 97 94 94 94 93 90 90 92 91 86 80 73 69 67 62 54 45 34
87 89 94 92 95 99 99 98 97 96 95 93 93 92 91 91 90 90 91 92 92 92 92 92 92 93 92 91 88 85 82 78 74 70 66 62 57 51 46 41 36 30 28
92 98 98 97 98 100 101 100 100 98 98 96 95 91 90 91 92 92 93 93 92 89 87 85 84 81 77 75 74 72 70 67 65 62 57 54 51 49 47 43 40 37 32
90 92 96 99 99 100 102 103 101 98 97 95 93 93 92 92 91 90 88 88 86 84 82 80 75 70 67 66 63 62 61 60 59 58 56 53 49 43 39 32 24 19 15
96 99 101 100 104 105 104 102 103 100 98 95 93 91 90 89 86 83 79 78 77 75 76 75 74 73 72 71 69 67 64 61 57 53 49 45 41 35 30 25 22 20 16
101 101 105 105 102 102 103 104 101 99 96 91 90 88 84 79 80 82 82 80 76 74 73 72 72 72 73 69 64 61 62 61 59 56 53 52 51 48 46 43 39 33 27
106 107 106 105 103 105 103 101 98 95 94 92 89 85 87 86 80 79 78 77 75 74 73 73 73 73 71 67 63 61 59 58 56 54 51 48 46 42 39 36 34 32 29
109 107 107 105 106 105 104 102 99 97 95 92 92 90 86 85 82 79 77 76 74 73 71 70 69 69 67 63 59 56 54 51 49 47 45 42 40 37 34 30 25 22 19